Regional Weather Roundup
Issued by NWS Little Rock, AR

Home | Current Version | Previous Version | Graphics & Text | Print | Product List | Glossary On
Versions: 1 2 3 4 5 6 7 8 9 10 11 12 13 14 15 16 17 18 19 20 21 22 23 24 25 26 27 28 29 30 31 32 33 34 35 36 37 38 39 40 41 42 43 44 45 46 47 48 49 50
000
ASUS44 KLZK 010505
RWRLZK

WEATHER ROUNDUP FOR ARKANSAS
NATIONAL WEATHER SERVICE LITTLE ROCK AR
1200 AM CDT WED OCT 01 2014

NOTE: "FAIR" INDICATES FEW OR NO CLOUDS BELOW 12,000 FEET WITH NO
SIGNIFICANT WEATHER AND/OR OBSTRUCTIONS TO VISIBILITY.

ARZ001-003-010-029-010600-
NORTHWEST ARKANSAS

CITY           SKY/WX    TMP DP  RH WIND       PRES   REMARKS
FAYETTEVILLE   CLEAR     62  59  90 CALM      29.87S
FORT SMITH     CLEAR     69  63  81 NE6       29.83S
HARRISON       CLEAR     64  60  87 SE3       29.90R
BENTONVILLE    CLEAR     64  57  77 SE3       29.87S
ROGERS         CLEAR     67  60  78 E6        29.88S
SILOAM SPGS    CLEAR     66  55  68 SE6       29.87S
HIGHFILL       CLEAR     62  59  90 E3        29.86S
$$

ARZ004-005-016-010600-
NORTH CENTRAL ARKANSAS

CITY           SKY/WX    TMP DP  RH WIND       PRES   REMARKS
BATESVILLE     CLEAR     63  52  67 CALM      29.88S
FLIPPIN        CLEAR     61  52  72 CALM      29.89R
MTN HOME       CLEAR     67  54  63 SE5       29.88S
$$

ARZ040-041-010600-
WEST CENTRAL ARKANSAS

CITY           SKY/WX    TMP DP  RH WIND       PRES   REMARKS
MENA           CLEAR     64  63  94 CALM      29.87S
MOUNT IDA      CLEAR     65  63  93 CALM      29.84F FOG
$$

ARZ009-017-025-026-028-010600-
NORTHEAST ARKANSAS

CITY           SKY/WX    TMP DP  RH WIND       PRES   REMARKS
CORNING          N/A     64  59  82 E3        29.89S
JONESBORO      CLEAR     65  61  87 CALM      29.88S
NEWPORT        CLEAR     66  60  81 CALM      29.88S
WALNUT RIDGE   CLEAR     64  57  77 E3        29.86F
BLYTHEVILLE    PTCLDY    68  62  81 E7        29.89S
$$

ARZ022-023-033-042-044-010600-
CENTRAL ARKANSAS

CITY           SKY/WX    TMP DP  RH WIND       PRES   REMARKS
LITTLE ROCK    PTCLDY    70  62  76 CALM      29.86S
N LITTLE ROCK  PTCLDY    72  61  68 CALM      29.86S
JACKSONVILLE   CLEAR     65  60  85 CALM      29.86F
SEARCY         CLEAR     62  58  86 NW3       29.88S
HOT SPRINGS    CLEAR     71  60  68 E5        29.86S
RUSSELLVILLE   CLEAR     64  61  90 CALM      29.86R
$$

ARZ036-010600-
EAST ARKANSAS

CITY           SKY/WX    TMP DP  RH WIND       PRES   REMARKS
WEST MEMPHIS   PTCLDY    70  64  81 S3        29.87S
$$

ARZ050-053-066-070-073-010600-
SOUTHWEST ARKANSAS

CITY           SKY/WX    TMP DP  RH WIND       PRES   REMARKS
ARKADELPHIA    FAIR      67  67 100 CALM      29.85F
CAMDEN         PTCLDY    72  63  73 W5        29.85S
TEXARKANA      PTCLDY    74  66  76 SE5       29.83S
EL DORADO      PTCLDY    74  66  76 CALM      29.85S
DE QUEEN       CLOUDY    72  66  81 E3        29.81S
$$

ARZ056-057-069-010600-
SOUTHEAST ARKANSAS

CITY           SKY/WX    TMP DP  RH WIND       PRES   REMARKS
PINE BLUFF     PTCLDY    65  61  87 CALM      29.87R
STUTTGART      PTCLDY   N/A N/A N/A E7        29.87F
MONTICELLO     CLEAR     70  61  73 CALM      29.86S

$$





USA.gov is the U.S. government's official web portal to all federal, state and local government web resources and services.